ATLAS 5 CENTAUR DEB, 44015

Orbit data source: Space-Track

ATLAS 5 CENTAUR DEB, 44015 is space debris in HEO originally from a launch on Wed, 17 Sep 2014 UTC launched from the Air Force Eastern Test Range (AFETR). Debris objects in space refer to the collection of defunct objects orbiting the Earth. Examples of debris include non-operational satellites, rocket bodies, and fragments generated from explosions, collisions, or faulty payload assembly.

Loading next visibility...
Identifier
44015, 2014-055BW
Orbit
HEO
Country
Flag of USUS
Related business
Flag of USUnited Launch Alliance/Lockheed Martin (US)
Manufacturer
Unknown
Mission
Spacecraft
Bus & Motor
Unknown
Mass
Unknown
Launch date (UTC)
2014-09-17 (12 years ago)
Launch vehicle
Unknown
Launch site
Air Force Eastern Test Range (AFETR)
Object type
Payload
Rocket body
Debris
Shape & HBR
Unknown shape, 1.1 m
Radar Cross Section
RCS unknown

Expand to show TLE details & history
Last TLE update: 2 days ago

TLE from 2 days ago
0 ATLAS 5 CENTAUR DEB
1 44015U 14055BW  26105.74932366 -.00000238  00000-0  00000-0 0  9997
2 44015  21.1382  93.3202 5069756 256.6447  44.2473  1.95148843 53346
Epoch: 2026-04-15T17:59Z
TLE epoch observation values (Epoch: 2026-04-15T17:59:01.564Z)
Latitude
-0.00012°
Longitude
-20.35778°
Altitude
16,347.873 km
Speed
4.51 km/s
True Right ascension
06h 13m 13s
True Declination
0° 00' 00"
Sunlit
Object was in daylight at epoch
Visualization orbit readout
Latitude
Unknown
Longitude
Unknown
Altitude
Unknown
Speed
Unknown
Apparent Right ascension
Unknown
Apparent Declination
Unknown
Sunlit
N/A
Visualization observer readout
Local Sidereal Time
02:09:13
Azimuth
Unknown
Elevation
Unknown
Doppler factor
Unknown
Orbital elements
Apogee altitude
34,387.778 km
Perigee altitude
6,958.901 km
Semi-major axis
27,051.477 km
Eccentricity
0.50698
Inclination
21.1382°
RAAN
93.3202°
Arg. of periapsis
256.6447°
True anomaly
103.42193°
Mean anomaly
44.2473°
Eccentric anomaly
71.8495°
Mean motion
0.48782 °/min
Orbital period
737.98 mins
BSTAR
0
Loading maneuver chart data...
Computing Atmospheric mass density...

Documentation

Showing up to 5 results
|